[[{"header":{"parameterUnit":"m.s-1","parameterCategory":1,"la1":30.2992,"la2":30.254,"lo1":-89.0895,"lo2":-89.0443,"dy":0.0025,"dx":0.0025,"nx":19,"ny":19,"refTime":"2026-04-02T09:00:00:Z","depth":0,"parameterNumber":2,"parameterNumberName":"U-component_of_WINDS"},"data":[0,0,0,-3.9019,-3.9021,-3.9101,-3.9101,-3.921,-3.9211,0,0,0,0,0,0,0,0,0,0,0,-3.9,-3.9001,-3.9019,-3.9021,-3.9101,-3.9101,-3.921,-3.9211,0,0,0,0,0,0,0,0,0,0,0,-3.8999,-3.9,-3.9001,-3.9021,-3.9101,-3.9101,-3.921,-3.9147,0,0,0,0,0,0,0,0,0,0,-3.9068,-3.9055,-3.9,-3.9002,-3.9022,-3.9101,-3.9101,-3.9144,-3.9151,-3.9177,0,-3.9202,0,-3.9209,-3.9219,-3.922,0,0,0,-3.9017,-3.9049,-3.9066,-3.9002,-3.9022,-3.9101,-3.9064,-3.9148,-3.9156,-3.9186,-3.9204,-3.9208,-3.9211,-3.922,-3.9221,-3.9386,-3.9387,0,0,-3.9013,-3.9016,-3.9061,-3.9072,-3.9061,-3.9061,-3.9066,-3.9152,-3.9171,-3.9204,-3.921,-3.9212,-3.9221,-3.9222,-3.9385,-3.9386,0,0,0,-3.9002,-3.9013,-3.9029,-3.9068,-3.9082,-3.9064,-3.9069,-3.9167,-3.9172,-3.9211,-3.9214,-3.9221,-3.9223,-3.9384,-3.9385,-3.9435,0,0,0,-3.9,-3.9007,-3.9027,-3.903,-3.908,-3.9126,-3.9083,-3.9166,-3.9176,-3.9213,-3.9221,-3.9224,-3.9383,-3.9385,-3.9431,-3.9457,0,0,0,-3.8993,-3.9007,-3.902,-3.903,-3.9065,-3.9124,-3.9134,-3.9168,-3.9177,-3.922,-3.9224,-3.9382,-3.9384,-3.9428,-3.9451,-3.95,0,0,0,-3.8986,-3.9063,-3.9021,-3.9107,-3.9064,-3.9155,-3.9133,-3.92,-3.9243,-3.9222,-3.9383,-3.9385,-3.9427,-3.9448,-3.9497,-3.954,-3.956,0,0,-3.9085,-3.9075,-3.9126,-3.909,-3.9189,-3.9142,-3.9249,-3.9284,-3.9284,-3.9352,-3.9356,-3.9432,-3.9451,-3.9499,-3.9669,-3.9684,0,0,0,-3.9158,-3.9194,-3.922,-3.9261,-3.929,-3.9317,-3.9335,-3.9348,-3.9405,-3.932,-3.9464,-3.9475,-3.9503,-3.9524,-3.9537,-3.956,-3.9395,-3.9395,-3.9395,-3.9301,-3.9298,-3.9382,-3.9389,-3.9429,-3.9448,-3.9479,-3.95,-3.9485,-3.952,-3.9539,-3.9642,-3.9666,-3.9676,-3.97,-3.9563,-3.9564,-3.9564,-3.9564,-3.9444,-3.9493,-3.9473,-3.9546,-3.9543,-3.9604,-3.9626,-3.9613,-3.9669,-3.9627,-3.9652,-3.9604,-3.9693,-3.9714,-3.9568,-3.9567,-3.9566,-3.9566,-3.9566,-3.9535,-3.9558,-3.9574,-3.9633,-3.9679,-3.9683,-3.9738,-3.9733,-3.9729,-3.9754,-3.9773,-3.9772,-3.9769,-3.9764,-3.9764,-3.9765,-3.9765,-3.9765,-3.9765,-3.9623,-3.9639,-3.9686,-3.9724,-3.975,-3.9783,-3.9804,-3.9828,-3.9854,-3.9846,-3.9847,-3.9827,-3.9703,-3.967,-3.9771,-3.977,-3.9769,-3.9769,-3.9768,-3.9765,-3.9732,-3.9805,-3.983,-3.9875,-3.992,-3.9914,-3.9965,-3.9985,-4.0012,-3.9989,-3.9898,-3.9887,-3.9877,-3.9849,-3.999,-3.999,-3.999,-3.999,-3.9841,-3.9835,-3.9908,-3.9949,-3.9989,-3.9992,-4.0073,-4.009,-4.0102,-4.0114,-4.0093,-4.0058,-4.0048,-4.0043,-4.0029,-4.0003,-4.018,-4.018,-4.018,-3.9927,-3.9925,-3.9995,-4.0007,-4.0042,-4.0071,-4.0147,-4.0194,-4.0202,-4.0188,-4.0123,-4.0115,-4.0057,-4.0039,-4.0021,-4.0,-3.9953,0,0]},{"header":{"parameterUnit":"m.s-1","parameterCategory":1,"la1":30.2992,"la2":30.254,"lo1":-89.0895,"lo2":-89.0443,"dy":0.0025,"dx":0.0025,"nx":19,"ny":19,"refTime":"2026-04-02T09:00:00:Z","depth":0,"parameterNumber":3,"parameterNumberName":"V-component_of_WINDS"},"data":[0,0,0,4.5926,4.5927,4.5977,4.5977,4.605,4.6051,0,0,0,0,0,0,0,0,0,0,0,4.5916,4.5917,4.5925,4.5927,4.5977,4.5977,4.605,4.6051,0,0,0,0,0,0,0,0,0,0,0,4.5916,4.5916,4.5917,4.5927,4.5977,4.5977,4.605,4.6009,0,0,0,0,0,0,0,0,0,0,4.5958,4.5955,4.5916,4.5917,4.5927,4.5977,4.5978,4.6006,4.6011,4.6031,0,4.605,0,4.6052,4.6056,4.6057,0,0,0,4.5922,4.5951,4.596,4.5917,4.5928,4.5977,4.5953,4.6009,4.6014,4.6037,4.6051,4.6054,4.6053,4.6057,4.6057,4.6189,4.619,0,0,4.592,4.5928,4.5956,4.5964,4.5957,4.5952,4.5955,4.6012,4.6028,4.6052,4.6055,4.6055,4.6057,4.6058,4.6188,4.6189,0,0,0,4.5915,4.5926,4.5933,4.5961,4.5969,4.5953,4.5957,4.6025,4.6027,4.6056,4.6055,4.6058,4.6059,4.6187,4.6189,4.6238,0,0,0,4.5913,4.5923,4.5932,4.5938,4.5969,4.5998,4.5969,4.6023,4.6029,4.6055,4.6058,4.606,4.6186,4.6188,4.6235,4.626,0,0,0,4.5911,4.5922,4.5932,4.5938,4.596,4.5997,4.6002,4.6024,4.6029,4.6057,4.606,4.6186,4.6188,4.6232,4.6255,4.6297,0,0,0,4.591,4.5973,4.5933,4.6003,4.596,4.6028,4.6001,4.6051,4.6081,4.6058,4.6187,4.6188,4.6231,4.6252,4.6294,4.6335,4.6353,0,0,4.5994,4.5984,4.6024,4.599,4.6067,4.6019,4.6104,4.6122,4.6116,4.6165,4.6168,4.6236,4.6254,4.6297,4.6449,4.6463,0,0,0,4.6054,4.6083,4.6102,4.6132,4.6149,4.6166,4.6171,4.6178,4.622,4.6143,4.6262,4.6273,4.6298,4.6317,4.6329,4.635,4.6198,4.6197,4.6197,4.6182,4.6174,4.6242,4.624,4.6269,4.6276,4.6298,4.6309,4.629,4.6319,4.6333,4.6427,4.6449,4.6458,4.648,4.6354,4.6354,4.6354,4.6354,4.6304,4.6345,4.6322,4.6379,4.637,4.6417,4.6426,4.6412,4.6455,4.6415,4.6436,4.6393,4.6474,4.6493,4.6358,4.6357,4.6357,4.6356,4.6356,4.6388,4.6406,4.6415,4.6459,4.6494,4.649,4.6533,4.6523,4.6513,4.6534,4.6549,4.6548,4.6546,4.6542,4.6542,4.6543,4.6543,4.6543,4.6543,4.647,4.648,4.6518,4.6544,4.6563,4.6586,4.6595,4.6613,4.663,4.6619,4.6619,4.6599,4.6484,4.6455,4.6548,4.6547,4.6547,4.6546,4.6546,4.6597,4.6568,4.6626,4.6646,4.6676,4.6712,4.67,4.6738,4.6751,4.6773,4.6748,4.6665,4.6653,4.6644,4.662,4.675,4.675,4.675,4.675,4.6667,4.6661,4.6721,4.6752,4.6782,4.6778,4.6845,4.6853,4.6857,4.6865,4.6845,4.6812,4.6803,4.6796,4.6783,4.6761,4.6924,4.6924,4.6925,4.6745,4.6742,4.6801,4.6806,4.683,4.6851,4.6914,4.6951,4.6949,4.6931,4.6871,4.6864,4.6811,4.6795,4.6775,4.6755,4.6714,0,0]}]]